2022/12/23 00:00:00, 0.0,-2.5
2022/12/23 00:10:00, 0.0,-2.6
2022/12/23 00:20:00, 0.1,-2.9
2022/12/23 00:30:00, 0.5,-3.4
2022/12/23 00:40:00, 0.9,-3.2
2022/12/23 00:50:00, 1.2,-3.7
2022/12/23 01:00:00, 1.8,-3.7
2022/12/23 01:10:00, 2.0,-3.9
2022/12/23 01:20:00, 2.2,-3.7
2022/12/23 01:30:00, 2.6,-3.8
2022/12/23 01:40:00, 3.2,-4.0
2022/12/23 01:50:00, 4.2,-4.3
2022/12/23 02:00:00, 5.7,-4.1
2022/12/23 02:10:00, 7.8,-4.0
2022/12/23 02:20:00, 8.9,-4.3
2022/12/23 02:30:00,10.2,-4.3
2022/12/23 02:40:00,10.7,-4.3
2022/12/23 02:50:00,10.9,-4.1
2022/12/23 03:00:00,11.3,-4.3
2022/12/23 03:10:00,11.5,-4.1
2022/12/23 03:20:00,11.8,-4.1
2022/12/23 03:30:00,12.5,-4.0
2022/12/23 03:40:00,12.4,-3.8
2022/12/23 03:50:00,13.1,-3.7
2022/12/23 04:00:00,13.2,-3.8
2022/12/23 04:10:00,13.6,-4.0
2022/12/23 04:20:00,13.8,-4.0
2022/12/23 04:30:00,14.2,-4.0
2022/12/23 04:40:00,14.2,-4.0
2022/12/23 04:50:00,14.4,-4.1
2022/12/23 05:00:00,14.9,-3.9
2022/12/23 05:10:00,15.1,-4.1
2022/12/23 05:20:00,15.1,-4.1
2022/12/23 05:30:00,15.4,-4.1
2022/12/23 05:40:00,15.1,-3.9
2022/12/23 05:50:00,15.0,-4.1
2022/12/23 06:00:00,15.0,-4.1
2022/12/23 06:10:00,15.0,-4.1
2022/12/23 06:20:00,15.1,-4.3
2022/12/23 06:30:00,15.2,-4.1
2022/12/23 06:40:00,15.0,-4.1
2022/12/23 06:50:00,15.4,-4.2
2022/12/23 07:00:00,16.5,-4.4
2022/12/23 07:10:00,16.6,-4.2
2022/12/23 07:20:00,16.7,-4.1
2022/12/23 07:30:00,16.4,-3.8
2022/12/23 07:40:00,16.8,-4.0
2022/12/23 07:50:00,16.7,-3.8
2022/12/23 08:00:00,16.4,-3.4
2022/12/23 08:10:00,16.3,-3.3
2022/12/23 08:20:00,16.4,-3.4
2022/12/23 08:30:00,16.5,-3.0
2022/12/23 08:40:00,16.7,-3.0
2022/12/23 08:50:00,16.6,-3.0
2022/12/23 09:00:00,16.5,-2.9
2022/12/23 09:10:00,16.4,-2.3
2022/12/23 09:20:00,16.3,-2.2
2022/12/23 09:30:00,16.1,-1.9
2022/12/23 09:40:00,15.8, 2.5
2022/12/23 09:50:00,15.6, 2.0
2022/12/23 10:00:00,15.7, 0.3
2022/12/23 10:10:00,15.5, 1.1
2022/12/23 10:20:00,15.3, 2.3
2022/12/23 10:30:00,15.1, 2.4
2022/12/23 10:40:00,14.9,-0.7
2022/12/23 10:50:00,15.0,-1.1
2022/12/23 11:00:00,15.0,-1.3
2022/12/23 11:10:00,14.8,-0.5
2022/12/23 11:20:00,14.8,-0.7
2022/12/23 11:30:00,14.7,-0.7
2022/12/23 11:40:00,14.6, 0.0
2022/12/23 11:50:00,14.4,-0.3
2022/12/23 12:00:00,14.3,-0.9
2022/12/23 12:10:00,14.2,-1.1
2022/12/23 12:20:00,14.1,-1.1
2022/12/23 12:30:00,14.1,-1.2
2022/12/23 12:40:00,14.0,-0.9
2022/12/23 12:50:00,14.0,-1.4
2022/12/23 13:00:00,14.0,-2.2
2022/12/23 13:10:00,13.8,-2.7
2022/12/23 13:20:00,14.3,-3.1
2022/12/23 13:30:00,15.0,-2.9
2022/12/23 13:40:00,15.3,-2.8
2022/12/23 13:50:00,15.8,-2.6
2022/12/23 14:00:00,16.0,-1.8
2022/12/23 14:10:00,16.0,-1.8
2022/12/23 14:20:00,15.9,-2.5
2022/12/23 14:30:00,15.8,-2.4
2022/12/23 14:40:00,16.0,-2.7
2022/12/23 14:50:00,16.2,-3.0
2022/12/23 15:00:00,16.7,-2.9
2022/12/23 15:10:00,16.8,-2.7
2022/12/23 15:20:00,17.2,-2.5
2022/12/23 15:30:00,17.2,-2.3
2022/12/23 15:40:00,17.4,-2.7
2022/12/23 15:50:00,17.4,-3.3
2022/12/23 16:00:00,17.8,-3.3
2022/12/23 16:10:00,18.1,-3.0
2022/12/23 16:20:00,18.1,-3.1
2022/12/23 16:30:00,18.0,-3.2
2022/12/23 16:40:00,17.7,-3.2
2022/12/23 16:50:00,17.9,-3.4
2022/12/23 17:00:00,18.5,-3.2
2022/12/23 17:10:00,18.5,-3.4
2022/12/23 17:20:00,18.5,-3.2
2022/12/23 17:30:00,19.0,-3.4
2022/12/23 17:40:00,19.3,-3.4
2022/12/23 17:50:00,19.4,-3.3
2022/12/23 18:00:00,19.4,-3.4
2022/12/23 18:10:00,20.1,-3.4
2022/12/23 18:20:00,20.2,-3.2
2022/12/23 18:30:00,20.9,-3.2
2022/12/23 18:40:00,20.8,-3.3
2022/12/23 18:50:00,21.7,-3.2
2022/12/23 19:00:00,22.5,-3.3
2022/12/23 19:10:00,22.6,-3.4
2022/12/23 19:20:00,22.3,-3.4
2022/12/23 19:30:00,22.2,-3.3
2022/12/23 19:40:00,22.2,-3.3
2022/12/23 19:50:00,22.1,-3.3
2022/12/23 20:00:00,21.9,-3.2
2022/12/23 20:10:00,22.1,-3.3
2022/12/23 20:20:00,22.0,-3.2
2022/12/23 20:30:00,21.8,-3.0
2022/12/23 20:40:00,21.9,-3.2
2022/12/23 20:50:00,21.9,-3.1
2022/12/23 21:00:00,21.8,-3.3
2022/12/23 21:10:00,21.8,-3.0
2022/12/23 21:20:00,21.7,-2.9
2022/12/23 21:30:00,21.7,-2.8
2022/12/23 21:40:00,21.7,-2.7
2022/12/23 21:50:00,21.5,-2.8
2022/12/23 22:00:00,21.5,-3.0
2022/12/23 22:10:00,21.3,-2.8
2022/12/23 22:20:00,21.1,-2.9
2022/12/23 22:30:00,21.0,-3.4
2022/12/23 22:40:00,20.9,-3.3
2022/12/23 22:50:00,20.8,-3.5
2022/12/23 23:00:00,20.7,-3.7
2022/12/23 23:10:00,20.6,-3.5
2022/12/23 23:20:00,20.5,-3.6
2022/12/23 23:30:00,20.5,-3.2
2022/12/23 23:40:00,20.3,-2.8
2022/12/23 23:50:00,20.2,-2.7
